QPF
0.00 0.00 0.00 0.00 0.00 0.00 0.00 0.00 0.01 0.01 0.01 0.01 0.03 0.02 0.01 0.02 0.02 0.04 0.02 0.02 0.02 0.02 0.03 0.08 0.03 0.02 0.02 0.02 0.01 0.02 0.02 0.01 0.01 0.02 0.05 0.06 0.05 0.05 0.07 0.08 0.09 0.06 0.03 0.03
0.00 0.00 0.00 0.00 0.00 0.00 0.00 0.01 0.01 0.01 0.01 0.02 0.03 0.02 0.02 0.02 0.04 0.04 0.03 0.02 0.02 0.02 0.02 0.02 0.01 0.01 0.01 0.02 0.01 0.01 0.01 0.01 0.00 0.01 0.05 0.08 0.07 0.05 0.04 0.03 0.03 0.03 0.02 0.04
0.00 0.00 0.00 0.00 0.00 0.00 0.00 0.00 0.01 0.01 0.02 0.02 0.02 0.03 0.03 0.03 0.06 0.04 0.05 0.05 0.04 0.04 0.03 0.02 0.01 0.00 0.00 0.01 0.01 0.01 0.02 0.01 0.01 0.01 0.04 0.11 0.11 0.08 0.06 0.03 0.03 0.02 0.03 0.06
0.00 0.00 0.00 0.00 0.00 0.00 0.00 0.00 0.00 0.01 0.02 0.03 0.02 0.03 0.06 0.07 0.06 0.04 0.06 0.09 0.07 0.05 0.04 0.03 0.01 0.00 0.00 0.00 0.01 0.01 0.01 0.01 0.01 0.01 0.02 0.08 0.13 0.11 0.08 0.04 0.02 0.02 0.03 0.06
0.00 0.00 0.00 0.00 0.00 0.00 0.00 0.00 0.00 0.00 0.00 0.01 0.01 0.01 0.05 0.13 0.08 0.07 0.07 0.06 0.06 0.04 0.04 0.03 0.01 0.01 0.01 0.00 0.00 0.00 0.00 0.01 0.01 0.01 0.01 0.02 0.08 0.13 0.12 0.07 0.04 0.04 0.04 0.04
0.00 0.00 0.00 0.00 0.00 0.00 0.00 0.00 0.00 0.00 0.00 0.00 0.01 0.01 0.03 0.10 0.08 0.08 0.09 0.07 0.06 0.07 0.05 0.03 0.03 0.03 0.02 0.01 0.01 0.01 0.01 0.01 0.01 0.00 0.01 0.01 0.02 0.06 0.12 0.12 0.08 0.06 0.05 0.03
0.00 0.00 0.00 0.00 0.00 0.00 0.00 0.00 0.00 0.00 0.00 0.00 0.01 0.01 0.02 0.05 0.09 0.07 0.07 0.07 0.05 0.06 0.06 0.05 0.04 0.05 0.04 0.04 0.03 0.02 0.02 0.02 0.02 0.01 0.01 0.01 0.01 0.02 0.08 0.14 0.13 0.11 0.08 0.05
0.00 0.00 0.00 0.00 0.00 0.00 0.00 0.00 0.00 0.00 0.00 0.00 0.01 0.02 0.03 0.03 0.04 0.04 0.04 0.06 0.06 0.07 0.08 0.08 0.09 0.11 0.06 0.05 0.03 0.02 0.02 0.02 0.02 0.01 0.01 0.01 0.01 0.01 0.03 0.07 0.09 0.11 0.13 0.10
0.00 0.00 0.00 0.00 0.00 0.00 0.00 0.00 0.00 0.00 0.00 0.00 0.01 0.02 0.05 0.04 0.05 0.09 0.06 0.05 0.08 0.06 0.11 0.13 0.13 0.16 0.13 0.05 0.04 0.02 0.01 0.01 0.02 0.01 0.01 0.01 0.01 0.01 0.01 0.01 0.01 0.02 0.05 0.11
0.00 0.00 0.00 0.00 0.00 0.00 0.00 0.00 0.00 0.00 0.00 0.00 0.02 0.02 0.08 0.13 0.11 0.08 0.08 0.04 0.04 0.03 0.08 0.12 0.10 0.12 0.11 0.05 0.05 0.03 0.01 0.01 0.01 0.01 0.02 0.02 0.01 0.00 0.01 0.01 0.01 0.02 0.02 0.03
0.00 0.00 0.00 0.00 0.00 0.00 0.00 0.00 0.00 0.00 0.00 0.00 0.02 0.03 0.04 0.09 0.11 0.09 0.09 0.03 0.03 0.03 0.03 0.04 0.06 0.08 0.09 0.07 0.06 0.07 0.04 0.03 0.02 0.02 0.02 0.02 0.02 0.01 0.01 0.01 0.01 0.01 0.03 0.03
0.00 0.00 0.00 0.00 0.00 0.00 0.00 0.00 0.00 0.00 0.00 0.00 0.01 0.02 0.01 0.02 0.04 0.13 0.16 0.04 0.03 0.03 0.04 0.03 0.04 0.07 0.07 0.05 0.05 0.06 0.07 0.07 0.05 0.03 0.03 0.02 0.03 0.03 0.02 0.01 0.01 0.01 0.03 0.03
0.00 0.00 0.00 0.00 0.00 0.00 0.00 0.00 0.00 0.00 0.00 0.00 0.00 0.01 0.03 0.06 0.02 0.07 0.12 0.11 0.06 0.03 0.03 0.03 0.03 0.04 0.05 0.04 0.04 0.05 0.06 0.05 0.05 0.06 0.05 0.04 0.04 0.05 0.04 0.03 0.03 0.03 0.04 0.05
0.00 0.00 0.00 0.00 0.00 0.00 0.00 0.00 0.00 0.00 0.00 0.00 0.00 0.01 0.03 0.04 0.02 0.03 0.09 0.18 0.08 0.06 0.04 0.03 0.03 0.03 0.02 0.02 0.02 0.03 0.04 0.05 0.05 0.06 0.06 0.06 0.06 0.05 0.05 0.06 0.07 0.07 0.08 0.11
0.00 0.00 0.00 0.00 0.00 0.00 0.00 0.00 0.00 0.00 0.00 0.01 0.01 0.01 0.02 0.02 0.03 0.04 0.08 0.14 0.08 0.05 0.05 0.04 0.03 0.02 0.02 0.01 0.01 0.02 0.03 0.05 0.05 0.05 0.06 0.07 0.09 0.09 0.08 0.08 0.08 0.09 0.10 0.11
0.00 0.00 0.00 0.00 0.00 0.00 0.00 0.00 0.00 0.00 0.01 0.02 0.02 0.02 0.02 0.01 0.02 0.02 0.03 0.09 0.07 0.04 0.04 0.06 0.05 0.04 0.03 0.03 0.02 0.02 0.03 0.03 0.04 0.04 0.06 0.06 0.08 0.09 0.10 0.10 0.10 0.11 0.11 0.12
0.01 0.01 0.00 0.00 0.00 0.00 0.00 0.00 0.01 0.01 0.02 0.05 0.03 0.01 0.01 0.01 0.02 0.03 0.02 0.02 0.04 0.04 0.04 0.05 0.06 0.06 0.06 0.06 0.05 0.04 0.02 0.02 0.04 0.06 0.07 0.09 0.10 0.11 0.10 0.10 0.09 0.08 0.09 0.09
0.00 0.00 0.00 0.00 0.00 0.00 0.00 0.00 0.01 0.03 0.03 0.02 0.01 0.01 0.01 0.01 0.01 0.01 0.01 0.00 0.01 0.01 0.03 0.04 0.05 0.06 0.06 0.07 0.09 0.08 0.05 0.05 0.06 0.08 0.08 0.08 0.08 0.08 0.09 0.10 0.11 0.09 0.07 0.07
0.00 0.00 0.01 0.01 0.00 0.00 0.00 0.00 0.01 0.01 0.03 0.03 0.02 0.01 0.01 0.01 0.01 0.02 0.01 0.01 0.00 0.01 0.01 0.02 0.03 0.06 0.07 0.05 0.06 0.09 0.07 0.06 0.06 0.05 0.04 0.04 0.05 0.06 0.07 0.08 0.08 0.09 0.09 0.09
0.00 0.00 0.00 0.00 0.00 0.01 0.00 0.00 0.00 0.01 0.02 0.02 0.02 0.01 0.01 0.01 0.01 0.02 0.01 0.01 0.01 0.01 0.01 0.02 0.01 0.02 0.04 0.04 0.03 0.04 0.04 0.04 0.05 0.05 0.05 0.05 0.06 0.06 0.06 0.07 0.07 0.08 0.08 0.09
0.00 0.00 0.00 0.00 0.01 0.01 0.01 0.00 0.01 0.02 0.02 0.01 0.01 0.01 0.01 0.01 0.01 0.02 0.02 0.01 0.02 0.02 0.02 0.02 0.02 0.02 0.02 0.04 0.04 0.04 0.05 0.03 0.03 0.04 0.04 0.06 0.07 0.08 0.07 0.06 0.06 0.05 0.06 0.06
0.01 0.01 0.01 0.01 0.01 0.01 0.00 0.00 0.02 0.02 0.01 0.01 0.01 0.01 0.01 0.01 0.01 0.02 0.03 0.02 0.02 0.02 0.02 0.02 0.02 0.02 0.01 0.02 0.04 0.05 0.05 0.04 0.04 0.04 0.05 0.06 0.08 0.08 0.08 0.08 0.08 0.07 0.05 0.05
0.03 0.03 0.02 0.02 0.02 0.01 0.00 0.01 0.01 0.02 0.02 0.02 0.02 0.01 0.01 0.01 0.01 0.02 0.05 0.05 0.03 0.03 0.02 0.02 0.02 0.02 0.02 0.02 0.03 0.05 0.06 0.04 0.04 0.05 0.06 0.07 0.08 0.08 0.08 0.08 0.08 0.07 0.07 0.07
0.01 0.01 0.02 0.02 0.02 0.01 0.01 0.01 0.02 0.04 0.03 0.04 0.05 0.03 0.02 0.02 0.02 0.04 0.07 0.08 0.06 0.04 0.04 0.03 0.03 0.04 0.04 0.03 0.03 0.03 0.04 0.04 0.04 0.05 0.04 0.05 0.07 0.08 0.09 0.09 0.10 0.10 0.09 0.09
0.01 0.01 0.02 0.02 0.02 0.02 0.01 0.02 0.05 0.05 0.07 0.07 0.06 0.06 0.04 0.03 0.03 0.05 0.08 0.09 0.09 0.08 0.06 0.05 0.05 0.05 0.04 0.03 0.03 0.03 0.03 0.03 0.04 0.04 0.04 0.05 0.06 0.08 0.09 0.10 0.10 0.09 0.09 0.08
0.01 0.01 0.02 0.04 0.03 0.02 0.02 0.03 0.07 0.06 0.06 0.09 0.08 0.05 0.06 0.07 0.08 0.08 0.07 0.09 0.12 0.15 0.12 0.08 0.06 0.04 0.03 0.03 0.03 0.03 0.04 0.03 0.04 0.05 0.05 0.06 0.06 0.07 0.09 0.11 0.10 0.09 0.08 0.08
MSLP
1008.12 1009.17 1009.99 1010.55 1010.86 1010.98 1010.98 1010.95 1010.96 1011.05 1011.22 1011.47 1011.76 1012.05 1012.31 1012.51 1012.66 1012.76 1012.82 1012.87 1012.91 1012.95 1013.01 1013.07 1013.15 1013.25 1013.37 1013.54 1013.76 1014.03 1014.36 1014.72 1015.09 1015.44 1015.73 1015.94 1016.07 1016.13 1016.12 1016.07 1016.03 1016.03 1016.07 1016.18
1008.80 1009.66 1010.26 1010.63 1010.80 1010.85 1010.86 1010.90 1011.01 1011.22 1011.49 1011.80 1012.10 1012.35 1012.53 1012.64 1012.69 1012.71 1012.72 1012.76 1012.82 1012.91 1013.01 1013.12 1013.21 1013.30 1013.39 1013.51 1013.67 1013.90 1014.19 1014.54 1014.92 1015.29 1015.61 1015.84 1015.97 1015.98 1015.91 1015.79 1015.66 1015.56 1015.52 1015.58
1009.17 1009.76 1010.13 1010.30 1010.36 1010.39 1010.47 1010.66 1010.96 1011.35 1011.78 1012.19 1012.51 1012.71 1012.78 1012.75 1012.65 1012.54 1012.47 1012.46 1012.52 1012.65 1012.82 1012.98 1013.13 1013.25 1013.34 1013.43 1013.55 1013.73 1013.99 1014.32 1014.68 1015.06 1015.38 1015.62 1015.74 1015.73 1015.61 1015.42 1015.21 1015.04 1014.94 1014.94
1009.21 1009.54 1009.67 1009.68 1009.68 1009.76 1009.99 1010.40 1010.95 1011.58 1012.21 1012.73 1013.08 1013.22 1013.15 1012.93 1012.64 1012.35 1012.13 1012.04 1012.08 1012.24 1012.46 1012.71 1012.93 1013.10 1013.22 1013.31 1013.41 1013.56 1013.77 1014.06 1014.40 1014.75 1015.07 1015.30 1015.42 1015.39 1015.24 1015.02 1014.76 1014.53 1014.38 1014.34
1009.02 1009.09 1009.02 1008.93 1008.94 1009.13 1009.57 1010.25 1011.09 1011.99 1012.82 1013.47 1013.83 1013.89 1013.67 1013.24 1012.71 1012.21 1011.82 1011.61 1011.60 1011.76 1012.04 1012.36 1012.67 1012.91 1013.08 1013.19 1013.28 1013.39 1013.56 1013.80 1014.10 1014.42 1014.72 1014.94 1015.05 1015.02 1014.87 1014.63 1014.36 1014.10 1013.92 1013.85
1008.68 1008.54 1008.34 1008.21 1008.28 1008.63 1009.31 1010.28 1011.42 1012.58 1013.61 1014.35 1014.72 1014.69 1014.30 1013.65 1012.89 1012.16 1011.59 1011.25 1011.18 1011.33 1011.65 1012.05 1012.43 1012.75 1012.98 1013.12 1013.21 1013.29 1013.41 1013.59 1013.84 1014.12 1014.39 1014.60 1014.71 1014.69 1014.56 1014.33 1014.06 1013.80 1013.61 1013.51
1008.28 1008.00 1007.73 1007.62 1007.80 1008.34 1009.26 1010.48 1011.88 1013.26 1014.43 1015.25 1015.60 1015.47 1014.93 1014.08 1013.11 1012.19 1011.45 1011.00 1010.86 1011.01 1011.36 1011.82 1012.28 1012.68 1012.96 1013.13 1013.22 1013.28 1013.36 1013.49 1013.68 1013.91 1014.14 1014.33 1014.45 1014.45 1014.34 1014.14 1013.90 1013.66 1013.46 1013.33
1007.88 1007.54 1007.27 1007.23 1007.53 1008.24 1009.35 1010.78 1012.35 1013.87 1015.12 1015.95 1016.26 1016.04 1015.37 1014.37 1013.25 1012.19 1011.35 1010.83 1010.66 1010.81 1011.20 1011.72 1012.26 1012.71 1013.05 1013.26 1013.36 1013.40 1013.44 1013.51 1013.65 1013.82 1014.02 1014.19 1014.31 1014.33 1014.25 1014.09 1013.88 1013.66 1013.46 1013.32
1007.53 1007.20 1006.99 1007.04 1007.45 1008.29 1009.53 1011.05 1012.68 1014.22 1015.47 1016.26 1016.50 1016.21 1015.45 1014.38 1013.20 1012.09 1011.23 1010.70 1010.54 1010.73 1011.17 1011.74 1012.34 1012.85 1013.24 1013.48 1013.59 1013.63 1013.64 1013.67 1013.76 1013.89 1014.05 1014.20 1014.30 1014.33 1014.28 1014.16 1013.98 1013.78 1013.59 1013.45
1007.24 1006.99 1006.88 1007.02 1007.53 1008.43 1009.68 1011.18 1012.76 1014.21 1015.35 1016.04 1016.20 1015.85 1015.06 1014.00 1012.85 1011.80 1011.00 1010.54 1010.45 1010.70 1011.20 1011.83 1012.48 1013.05 1013.47 1013.75 1013.88 1013.92 1013.93 1013.94 1013.99 1014.09 1014.21 1014.33 1014.42 1014.45 1014.42 1014.31 1014.16 1013.98 1013.80 1013.65
1007.04 1006.92 1006.93 1007.17 1007.71 1008.59 1009.76 1011.12 1012.51 1013.77 1014.72 1015.25 1015.32 1014.93 1014.18 1013.20 1012.18 1011.28 1010.63 1010.31 1010.34 1010.69 1011.26 1011.94 1012.63 1013.23 1013.69 1014.00 1014.17 1014.23 1014.25 1014.26 1014.30 1014.37 1014.46 1014.56 1014.63 1014.65 1014.60 1014.51 1014.37 1014.20 1014.03 1013.88
1006.95 1006.99 1007.13 1007.44 1007.99 1008.78 1009.78 1010.90 1012.02 1012.99 1013.69 1014.04 1014.00 1013.60 1012.92 1012.10 1011.27 1010.59 1010.15 1010.02 1010.20 1010.65 1011.29 1012.01 1012.72 1013.35 1013.84 1014.17 1014.37 1014.48 1014.53 1014.56 1014.60 1014.67 1014.74 1014.81 1014.86 1014.86 1014.80 1014.70 1014.56 1014.40 1014.24 1014.10
1006.99 1007.20 1007.47 1007.84 1008.36 1009.02 1009.79 1010.62 1011.40 1012.04 1012.45 1012.60 1012.46 1012.06 1011.49 1010.86 1010.27 1009.85 1009.65 1009.72 1010.05 1010.59 1011.28 1012.02 1012.73 1013.36 1013.85 1014.22 1014.46 1014.61 1014.71 1014.78 1014.85 1014.93 1015.00 1015.05 1015.07 1015.04 1014.96 1014.84 1014.70 1014.54 1014.39 1014.25
1007.19 1007.56 1007.95 1008.36 1008.82 1009.33 1009.85 1010.36 1010.79 1011.10 1011.23 1011.18 1010.94 1010.57 1010.12 1009.69 1009.35 1009.17 1009.21 1009.46 1009.92 1010.53 1011.24 1011.96 1012.65 1013.24 1013.73 1014.11 1014.39 1014.59 1014.75 1014.88 1014.99 1015.09 1015.17 1015.21 1015.21 1015.15 1015.05 1014.92 1014.76 1014.61 1014.46 1014.34
1007.55 1008.07 1008.55 1008.99 1009.38 1009.73 1010.01 1010.22 1010.33 1010.32 1010.20 1009.97 1009.67 1009.32 1009.00 1008.75 1008.64 1008.69 1008.92 1009.31 1009.86 1010.49 1011.17 1011.85 1012.47 1013.02 1013.48 1013.86 1014.17 1014.42 1014.64 1014.83 1015.00 1015.13 1015.23 1015.27 1015.26 1015.19 1015.07 1014.92 1014.76 1014.61 1014.47 1014.36
1008.08 1008.69 1009.23 1009.67 1009.99 1010.19 1010.27 1010.22 1010.06 1009.80 1009.47 1009.11 1008.75 1008.45 1008.23 1008.15 1008.22 1008.44 1008.80 1009.29 1009.87 1010.49 1011.11 1011.70 1012.24 1012.71 1013.13 1013.49 1013.82 1014.12 1014.40 1014.65 1014.88 1015.05 1015.17 1015.23 1015.21 1015.14 1015.01 1014.86 1014.70 1014.54 1014.42 1014.32
1008.72 1009.37 1009.91 1010.32 1010.57 1010.64 1010.55 1010.31 1009.94 1009.50 1009.03 1008.58 1008.21 1007.94 1007.82 1007.86 1008.06 1008.40 1008.85 1009.38 1009.94 1010.50 1011.03 1011.52 1011.96 1012.35 1012.71 1013.06 1013.40 1013.73 1014.06 1014.37 1014.64 1014.86 1015.01 1015.09 1015.08 1015.01 1014.89 1014.74 1014.58 1014.44 1014.33 1014.24
1009.41 1010.02 1010.51 1010.85 1011.01 1010.98 1010.76 1010.38 1009.88 1009.33 1008.79 1008.31 1007.94 1007.73 1007.68 1007.82 1008.10 1008.51 1008.99 1009.51 1010.02 1010.51 1010.94 1011.32 1011.66 1011.97 1012.28 1012.60 1012.94 1013.30 1013.66 1014.02 1014.34 1014.59 1014.77 1014.87 1014.88 1014.82 1014.71 1014.58 1014.44 1014.31 1014.21 1014.13
1010.06 1010.55 1010.93 1011.17 1011.22 1011.09 1010.78 1010.32 1009.76 1009.17 1008.61 1008.14 1007.81 1007.65 1007.67 1007.87 1008.21 1008.64 1009.12 1009.61 1010.06 1010.46 1010.80 1011.09 1011.35 1011.59 1011.86 1012.16 1012.49 1012.87 1013.26 1013.64 1013.99 1014.28 1014.48 1014.60 1014.63 1014.59 1014.50 1014.38 1014.26 1014.15 1014.06 1013.99
1010.59 1010.90 1011.12 1011.21 1011.15 1010.93 1010.55 1010.05 1009.48 1008.90 1008.37 1007.95 1007.68 1007.58 1007.66 1007.90 1008.27 1008.70 1009.17 1009.62 1010.02 1010.35 1010.62 1010.84 1011.04 1011.24 1011.48 1011.76 1012.09 1012.47 1012.87 1013.27 1013.63 1013.94 1014.16 1014.29 1014.34 1014.32 1014.25 1014.16 1014.05 1013.96 1013.88 1013.81
1010.92 1011.02 1011.05 1010.98 1010.79 1010.48 1010.06 1009.56 1009.02 1008.49 1008.03 1007.68 1007.48 1007.45 1007.58 1007.85 1008.22 1008.66 1009.10 1009.51 1009.87 1010.16 1010.39 1010.58 1010.75 1010.93 1011.15 1011.43 1011.75 1012.13 1012.53 1012.93 1013.29 1013.59 1013.82 1013.96 1014.02 1014.02 1013.97 1013.89 1013.80 1013.72 1013.64 1013.59
1011.02 1010.90 1010.72 1010.49 1010.19 1009.81 1009.37 1008.89 1008.41 1007.96 1007.59 1007.33 1007.21 1007.23 1007.41 1007.70 1008.08 1008.50 1008.92 1009.31 1009.65 1009.93 1010.14 1010.32 1010.49 1010.68 1010.90 1011.17 1011.49 1011.85 1012.23 1012.61 1012.96 1013.25 1013.46 1013.60 1013.67 1013.67 1013.63 1013.56 1013.49 1013.41 1013.35 1013.29
1010.87 1010.54 1010.19 1009.82 1009.42 1009.00 1008.57 1008.14 1007.73 1007.38 1007.11 1006.94 1006.90 1006.99 1007.19 1007.50 1007.88 1008.28 1008.69 1009.07 1009.40 1009.67 1009.90 1010.10 1010.28 1010.48 1010.71 1010.98 1011.29 1011.63 1011.98 1012.32 1012.64 1012.90 1013.09 1013.22 1013.28 1013.28 1013.24 1013.18 1013.11 1013.03 1012.97 1012.92
1010.47 1009.99 1009.51 1009.04 1008.59 1008.17 1007.77 1007.41 1007.09 1006.84 1006.67 1006.60 1006.63 1006.76 1006.99 1007.30 1007.67 1008.06 1008.45 1008.82 1009.15 1009.44 1009.69 1009.91 1010.13 1010.34 1010.58 1010.85 1011.13 1011.44 1011.76 1012.06 1012.33 1012.55 1012.72 1012.82 1012.87 1012.86 1012.82 1012.75 1012.67 1012.60 1012.53 1012.49
1009.87 1009.30 1008.75 1008.24 1007.78 1007.38 1007.05 1006.77 1006.56 1006.41 1006.34 1006.35 1006.43 1006.60 1006.84 1007.14 1007.49 1007.86 1008.23 1008.59 1008.93 1009.24 1009.52 1009.77 1010.01 1010.25 1010.49 1010.74 1011.01 1011.28 1011.55 1011.80 1012.02 1012.20 1012.33 1012.41 1012.44 1012.42 1012.36 1012.29 1012.20 1012.12 1012.05 1012.01
1009.12 1008.51 1007.95 1007.45 1007.03 1006.70 1006.44 1006.27 1006.16 1006.11 1006.12 1006.19 1006.31 1006.50 1006.73 1007.01 1007.33 1007.68 1008.03 1008.39 1008.73 1009.05 1009.36 1009.64 1009.91 1010.16 1010.41 1010.65 1010.89 1011.12 1011.34 1011.54 1011.72 1011.86 1011.95 1012.00 1012.01 1011.98 1011.92 1011.84 1011.74 1011.65 1011.58 1011.52
Thickness
5835 5815 5803 5811 5819 5818 5814 5808 5806 5820 5839 5830 5820 5819 5823 5829 5828 5825 5824 5821 5819 5818 5821 5822 5821 5817 5812 5808 5805 5802 5800 5798 5796 5793 5790 5788 5787 5787 5786 5786 5785 5783 5782 5781
5811 5803 5821 5830 5830 5824 5816 5805 5806 5819 5836 5828 5815 5815 5826 5829 5827 5827 5824 5821 5820 5817 5818 5819 5819 5817 5813 5809 5806 5803 5801 5799 5797 5796 5794 5792 5790 5788 5788 5787 5786 5784 5783 5781
5801 5815 5833 5828 5822 5816 5813 5806 5808 5812 5823 5824 5812 5800 5809 5822 5827 5828 5828 5827 5823 5822 5820 5820 5818 5816 5813 5810 5808 5806 5803 5800 5798 5797 5795 5792 5789 5787 5785 5784 5784 5784 5783 5781
5809 5826 5828 5821 5818 5818 5804 5825 5823 5818 5803 5791 5801 5770 5794 5808 5813 5820 5824 5825 5824 5824 5824 5821 5820 5817 5815 5813 5811 5808 5804 5801 5799 5797 5794 5790 5786 5782 5783 5784 5784 5784 5783 5781
5806 5822 5820 5814 5823 5827 5820 5835 5827 5819 5802 5788 5792 5774 5782 5799 5798 5811 5820 5825 5827 5828 5826 5823 5822 5820 5818 5816 5812 5808 5805 5801 5800 5798 5795 5791 5788 5785 5784 5783 5782 5781 5781 5780
5815 5832 5830 5827 5837 5838 5836 5825 5814 5801 5784 5766 5781 5773 5770 5788 5799 5809 5818 5824 5827 5828 5827 5824 5823 5819 5815 5814 5811 5808 5804 5801 5800 5797 5795 5791 5788 5785 5782 5780 5779 5779 5779 5779
5798 5816 5830 5835 5821 5826 5821 5788 5761 5758 5747 5755 5780 5774 5774 5804 5815 5816 5817 5820 5824 5826 5825 5821 5817 5814 5811 5809 5808 5806 5803 5800 5799 5796 5794 5791 5788 5785 5782 5780 5778 5777 5776 5776
5771 5779 5813 5826 5817 5807 5807 5787 5754 5742 5740 5751 5771 5766 5785 5813 5820 5822 5824 5823 5823 5823 5822 5820 5818 5814 5811 5809 5807 5805 5802 5799 5798 5795 5793 5791 5789 5786 5783 5782 5780 5778 5777 5777
5769 5776 5814 5827 5831 5820 5802 5789 5787 5761 5754 5744 5752 5770 5790 5809 5810 5812 5815 5816 5817 5818 5819 5818 5817 5814 5812 5809 5806 5804 5802 5799 5798 5796 5793 5790 5788 5786 5783 5781 5780 5778 5778 5778
5785 5774 5796 5816 5823 5820 5813 5800 5773 5756 5738 5730 5743 5757 5766 5786 5795 5803 5808 5809 5811 5814 5814 5814 5814 5812 5810 5808 5805 5803 5801 5798 5797 5795 5793 5791 5788 5786 5783 5780 5778 5777 5777 5776
5786 5767 5776 5791 5791 5790 5796 5789 5771 5752 5748 5730 5726 5744 5788 5789 5796 5798 5803 5806 5807 5808 5809 5809 5808 5808 5806 5803 5801 5798 5796 5794 5793 5792 5791 5789 5786 5784 5782 5779 5777 5776 5775 5774
5779 5759 5753 5772 5794 5804 5795 5784 5768 5749 5743 5738 5731 5744 5794 5794 5796 5797 5798 5801 5804 5805 5805 5804 5803 5801 5798 5796 5795 5793 5793 5791 5790 5789 5786 5784 5783 5780 5777 5776 5775 5775 5773 5772
5774 5750 5734 5744 5761 5779 5781 5781 5773 5758 5743 5733 5728 5744 5785 5787 5788 5792 5794 5796 5798 5798 5798 5797 5796 5794 5793 5791 5790 5789 5788 5788 5788 5785 5782 5779 5777 5775 5773 5772 5772 5771 5770 5768
5776 5744 5733 5728 5737 5755 5762 5770 5773 5755 5735 5733 5740 5747 5763 5773 5776 5781 5786 5788 5788 5788 5788 5787 5787 5788 5788 5787 5786 5784 5784 5784 5783 5780 5776 5773 5772 5771 5770 5769 5768 5767 5766 5763
5760 5738 5743 5745 5755 5760 5760 5763 5767 5760 5751 5741 5747 5748 5757 5767 5772 5775 5779 5779 5779 5778 5779 5780 5780 5781 5781 5780 5779 5779 5778 5777 5776 5772 5769 5768 5767 5765 5764 5763 5762 5762 5760 5759
5743 5735 5735 5736 5749 5752 5751 5758 5762 5760 5758 5752 5750 5748 5762 5768 5769 5769 5769 5771 5768 5768 5770 5771 5772 5773 5772 5771 5771 5771 5771 5771 5770 5766 5763 5762 5760 5758 5756 5755 5754 5754 5753 5752
5727 5723 5714 5712 5730 5736 5727 5745 5749 5748 5751 5748 5739 5745 5755 5756 5759 5760 5761 5762 5761 5761 5762 5762 5763 5763 5763 5763 5762 5761 5762 5762 5761 5758 5756 5755 5752 5750 5749 5749 5747 5746 5745 5744
5719 5710 5699 5699 5710 5701 5721 5748 5751 5743 5743 5747 5745 5747 5750 5751 5753 5756 5757 5754 5753 5754 5754 5754 5754 5754 5754 5754 5754 5753 5753 5752 5751 5749 5747 5746 5745 5743 5741 5740 5739 5738 5737 5736
5722 5707 5692 5684 5685 5697 5720 5737 5741 5731 5724 5737 5736 5738 5742 5746 5744 5741 5748 5750 5749 5748 5748 5747 5747 5747 5745 5745 5745 5742 5741 5740 5739 5738 5738 5737 5736 5735 5733 5731 5730 5730 5729 5727
5710 5703 5688 5679 5680 5681 5703 5731 5742 5731 5707 5726 5728 5728 5730 5731 5718 5723 5737 5740 5741 5740 5739 5738 5738 5737 5734 5735 5735 5732 5730 5728 5728 5728 5730 5729 5727 5726 5724 5723 5722 5721 5719 5717
5685 5682 5677 5672 5672 5683 5709 5726 5730 5700 5697 5717 5720 5720 5719 5715 5716 5722 5728 5731 5732 5732 5731 5731 5730 5727 5726 5726 5725 5721 5720 5719 5720 5721 5720 5719 5718 5717 5716 5714 5713 5711 5709 5707
5670 5666 5665 5664 5662 5672 5706 5711 5701 5697 5707 5711 5713 5714 5712 5712 5715 5717 5718 5719 5720 5720 5720 5720 5718 5717 5717 5717 5714 5711 5709 5711 5712 5711 5709 5708 5708 5708 5707 5704 5702 5700 5698 5697
5666 5668 5666 5666 5666 5683 5697 5698 5701 5702 5700 5702 5704 5706 5706 5705 5705 5706 5706 5707 5708 5709 5709 5709 5708 5706 5706 5706 5704 5701 5701 5702 5701 5700 5698 5697 5697 5696 5696 5693 5691 5688 5687 5686
5665 5671 5664 5661 5668 5678 5685 5690 5694 5696 5695 5697 5698 5698 5698 5696 5696 5696 5696 5696 5697 5698 5698 5698 5697 5695 5694 5695 5694 5693 5693 5692 5691 5689 5688 5687 5686 5685 5684 5683 5682 5680 5678 5676
5656 5658 5652 5652 5662 5669 5675 5680 5684 5687 5689 5689 5690 5690 5689 5687 5686 5686 5685 5686 5687 5687 5687 5688 5687 5684 5683 5684 5684 5684 5684 5683 5680 5679 5678 5676 5675 5674 5672 5671 5670 5670 5669 5669
5649 5648 5644 5644 5656 5657 5663 5673 5678 5678 5678 5679 5680 5679 5680 5679 5677 5678 5677 5678 5678 5677 5677 5677 5677 5676 5675 5675 5675 5675 5675 5674 5671 5669 5667 5666 5664 5663 5661 5659 5658 5659 5660 5659